Location: Betz
(49.1556°N, 2.9558°E)
Time: 08:33:51
(UTC+00:00)

ASTEX 1 - Pass Details

Date: 18 September 2019
Orbit: 720 x 744 km, 92.7° (Epoch: 18 October)

Event Time Altitude Azimuth Distance (km) Brightness Sun altitude
Rises 18:56:31 0° 9° (N) 3,148 6.8 -10.6°
Reaches altitude 10° 18:58:51 10° 13° (NNE) 2,220 5.9 -11.0°
Maximum altitude 19:03:41 56° 92° (E) 861 3.4 -11.8°
Drops below altitude 10° 19:08:27 10° 171° (S) 2,203 5.6 -12.5°
Sets 19:10:46 0° 175° (S) 3,120 6.4 -12.9°
